Overview Statistics Trail Chart Weather Telemetry Raw packets
 

This is the latest recevied weather packets stored in our database for station/object KG5VSR. If no packets are shown the sender has not sent any weather packets the latest 10 day(s).

<< 1 2 3 4 5 >>
Time Temp. Humidity Pressure Rain* Wind** Luminosity Snow
1788635820 37.78° C 45% 1013.2 hPa 0 mm - 652 W/m² -
1788634015 37.22° C 46% 1013.6 hPa 0 mm - 771 W/m² -
1788632210 37.22° C 47% 1014 hPa 0 mm - 125 W/m² -
1788630407 36.67° C 49% 1015 hPa 0 mm - 768 W/m² -
1788628601 36.11° C 49% 1015.1 hPa 0 mm - 778 W/m² -
1788626802 34.44° C 56% 1015.3 hPa 0 mm - 797 W/m² -
1788625001 33.89° C 59% 1015.2 hPa 0 mm - 776 W/m² -
1788623197 32.78° C 65% 1015.2 hPa 0 mm - 678 W/m² -
1788621392 31.67° C 70% 1015.3 hPa 0 mm - 513 W/m² -
1788619592 30.56° C 73% 1015.2 hPa 0 mm - 163 W/m² -
1788617790 29.44° C 75% 1015.1 hPa 0 mm - 88 W/m² -
1788615990 29.44° C 76% 1015.1 hPa 0 mm - 163 W/m² -
1788614185 28.89° C 78% 1014.7 hPa 0 mm - 72 W/m² -
1788612384 26.67° C 83% 1014.4 hPa 0 mm - 47 W/m² -
1788610585 25° C 88% 1014.2 hPa 0 mm - 7 W/m² -
1788608780 25.56° C 87% 1014.1 hPa 0 mm - 0 W/m² -
1788606977 25.56° C 87% 1014.4 hPa 0 mm - 0 W/m² -
1788605178 25.56° C 85% 1013.9 hPa 0 mm - 0 W/m² -
1788603377 26.11° C 83% 1014.1 hPa 0 mm - 0 W/m² -
1788601575 26.67° C 81% 1014.4 hPa 0 mm - 0 W/m² -
1788599773 26.67° C 81% 1013.8 hPa 0 mm - 0 W/m² -
1788597967 27.22° C 79% 1013.5 hPa 0 mm - 0 W/m² -
1788596167 27.78° C 77% 1013.5 hPa 0 mm - 0 W/m² -
1788594367 28.33° C 76% 1013.6 hPa 0 mm - 0 W/m² -
1788592563 28.33° C 76% 1013.8 hPa 0 mm - 0 W/m² -

* Rain latest hour (hover to see other rain measurements)
** Current wind speed in m/s (hover to see current wind gust speed)